Location: Auckland
(36.8670°S, 174.7670°E)
Time: 08:43:51
(UTC+12:00)

Hubble Space Telescope - Pass Details

Date: 30 June 2019
Orbit: 536 x 540 km, 28.5° (Epoch: 22 July)

Event Time Altitude Azimuth Distance (km) Brightness Sun altitude
Rises 06:02:15 0° 331° (NNW) 2,672 4.2 -17.9°
Reaches altitude 10° 06:06:47 10° 16° (NNE) 1,787 3.9 -17.0°
Maximum altitude 06:07:09 10° 22° (NNE) 1,781 3.9 -17.0°
Drops below altitude 10° 06:07:32 10° 27° (NNE) 1,788 4.0 -16.9°
Sets 06:12:05 0° 72° (ENE) 2,685 6.2 -16.0°
